LOT2AT EPWA-LGAV

Flight info

Callsign LOT2AT
Flight time 2h 13m
Altitude 34000
Route EVINA M985 KOTEK DCT LITKU/N0438F350 DCT PARAK DCT IBISI DCT KRATO DCT MAKED UL617 SKP UM749 ROPOX
Aircraft E195/M-SDE3GILORVW/S

Departure

Time 2026-05-06 10:51
Airport Warsaw Chopin Airport (EPWA)

Arrival

Time 2026-05-06 13:05
Airport Athens Eleftherios Venizelos International Airport (LGAV)
Time Latitude Longitude Altitude Speed Heading
2026-05-06 10:21 52.17345 20.97071 356 ft 0 kts 242°
2026-05-06 10:34 52.17346 20.97078 346 ft 0 kts 242°
2026-05-06 10:35 52.17345 20.97071 349 ft 0 kts 242°
2026-05-06 10:43 52.17345 20.97073 348 ft 2 kts 242°
2026-05-06 10:44 52.17368 20.97147 357 ft 4 kts 265°
2026-05-06 10:44 52.17363 20.97174 356 ft 2 kts 331°
2026-05-06 10:44 52.17349 20.97187 359 ft 0 kts 331°
2026-05-06 10:47 52.17393 20.97146 349 ft 13 kts 331°
2026-05-06 10:47 52.17505 20.97049 350 ft 22 kts 332°
2026-05-06 10:47 52.17609 20.96952 352 ft 15 kts 312°
2026-05-06 10:47 52.17584 20.96792 348 ft 15 kts 239°
2026-05-06 10:48 52.17561 20.96732 348 ft 17 kts 238°
2026-05-06 10:48 52.17545 20.96687 351 ft 17 kts 239°
2026-05-06 10:48 52.17526 20.96637 355 ft 16 kts 240°
2026-05-06 10:48 52.17510 20.96591 354 ft 6 kts 237°
2026-05-06 10:49 52.17488 20.96514 350 ft 9 kts 254°
2026-05-06 10:49 52.17450 20.96396 356 ft 14 kts 239°
2026-05-06 10:49 52.17384 20.96274 347 ft 14 kts 227°
2026-05-06 10:49 52.17268 20.96243 350 ft 20 kts 181°
2026-05-06 10:50 52.17158 20.96242 335 ft 12 kts 184°
2026-05-06 10:50 52.17087 20.96260 338 ft 11 kts 153°
2026-05-06 10:50 52.16890 20.96431 352 ft 61 kts 152°
2026-05-06 10:50 52.16335 20.96925 344 ft 119 kts 152°
2026-05-06 10:51 52.15444 20.97687 357 ft 167 kts 155°
2026-05-06 10:51 52.14383 20.98632 907 ft 176 kts 155°
2026-05-06 10:51 52.13292 20.99583 1633 ft 182 kts 153°
2026-05-06 10:51 52.12102 21.00478 2180 ft 197 kts 167°
2026-05-06 10:52 52.10726 21.00700 2849 ft 203 kts 190°
2026-05-06 10:52 52.09366 20.99937 3442 ft 216 kts 209°
2026-05-06 10:52 52.07971 20.98688 3856 ft 246 kts 207°
2026-05-06 10:52 52.06377 20.97402 4502 ft 260 kts 207°
2026-05-06 10:53 52.04750 20.96080 5496 ft 262 kts 208°
2026-05-06 10:53 52.03145 20.94677 6474 ft 262 kts 210°
2026-05-06 10:53 52.01551 20.93230 7369 ft 262 kts 210°
2026-05-06 10:53 51.99948 20.91797 8209 ft 263 kts 210°
2026-05-06 10:54 51.98339 20.90353 9012 ft 265 kts 210°
2026-05-06 10:54 51.96714 20.88904 9777 ft 268 kts 210°
2026-05-06 10:54 51.95032 20.87406 10211 ft 284 kts 210°
2026-05-06 10:54 51.93276 20.85798 10742 ft 294 kts 211°
2026-05-06 10:55 51.91479 20.84165 11469 ft 298 kts 211°
2026-05-06 10:55 51.89662 20.82532 12267 ft 300 kts 210°
2026-05-06 10:55 51.87829 20.80891 13109 ft 303 kts 211°
2026-05-06 10:55 51.85973 20.79224 13895 ft 307 kts 211°
2026-05-06 10:56 51.84098 20.77534 14608 ft 311 kts 211°
2026-05-06 10:56 51.82220 20.75833 15332 ft 316 kts 211°
2026-05-06 10:56 51.80290 20.74086 16053 ft 320 kts 211°
2026-05-06 10:56 51.78336 20.72302 16727 ft 325 kts 211°
2026-05-06 10:57 51.76358 20.70494 17400 ft 329 kts 211°
2026-05-06 10:57 51.74352 20.68661 18087 ft 334 kts 211°
2026-05-06 10:57 51.72319 20.66802 18693 ft 337 kts 211°
2026-05-06 10:57 51.70269 20.64925 19325 ft 341 kts 211°
2026-05-06 10:58 51.68197 20.63029 19948 ft 344 kts 211°
2026-05-06 10:58 51.66107 20.61111 20542 ft 348 kts 211°
2026-05-06 10:58 51.63996 20.59171 21106 ft 351 kts 211°
2026-05-06 10:58 51.61864 20.57204 21642 ft 355 kts 211°
2026-05-06 10:59 51.59714 20.55214 22183 ft 358 kts 211°
2026-05-06 10:59 51.57542 20.53204 22685 ft 362 kts 211°
2026-05-06 10:59 51.55346 20.51171 23208 ft 366 kts 211°
2026-05-06 10:59 51.53134 20.49121 23679 ft 369 kts 211°
2026-05-06 11:00 51.50908 20.47057 24165 ft 371 kts 211°
2026-05-06 11:00 51.48664 20.44976 24632 ft 373 kts 211°
2026-05-06 11:00 51.46414 20.42882 25115 ft 375 kts 212°
2026-05-06 11:00 51.44147 20.40772 25581 ft 378 kts 212°
2026-05-06 11:01 51.41869 20.38648 26026 ft 380 kts 212°
2026-05-06 11:01 51.39555 20.36572 26466 ft 384 kts 207°
2026-05-06 11:01 51.36975 20.35376 26845 ft 392 kts 188°
2026-05-06 11:01 51.34242 20.35136 27272 ft 394 kts 185°
2026-05-06 11:02 51.31491 20.34968 27679 ft 397 kts 185°
2026-05-06 11:02 51.28722 20.34798 28063 ft 400 kts 185°
2026-05-06 11:02 51.25936 20.34621 28434 ft 402 kts 185°
2026-05-06 11:02 51.23132 20.34447 28813 ft 404 kts 185°
2026-05-06 11:03 51.20314 20.34269 29177 ft 407 kts 185°
2026-05-06 11:03 51.17478 20.34093 29543 ft 409 kts 185°
2026-05-06 11:03 51.14627 20.33914 29893 ft 411 kts 185°
2026-05-06 11:03 51.11761 20.33739 30195 ft 413 kts 185°
2026-05-06 11:04 51.08883 20.33561 30469 ft 415 kts 185°
2026-05-06 11:04 51.05991 20.33385 30748 ft 417 kts 185°
2026-05-06 11:04 51.03092 20.33206 31046 ft 418 kts 185°
2026-05-06 11:04 51.01167 20.33090 31229 ft 419 kts 185°
2026-05-06 11:05 50.97259 20.32854 31572 ft 421 kts 185°
2026-05-06 11:05 50.94330 20.32678 31785 ft 422 kts 185°
2026-05-06 11:05 50.91387 20.32501 32026 ft 423 kts 185°
2026-05-06 11:05 50.88445 20.32327 32298 ft 423 kts 185°
2026-05-06 11:06 50.85506 20.32146 32632 ft 422 kts 185°
2026-05-06 11:06 50.82582 20.31966 32923 ft 420 kts 185°
2026-05-06 11:06 50.79661 20.31789 33202 ft 420 kts 185°
2026-05-06 11:06 50.76746 20.31615 33469 ft 419 kts 185°
2026-05-06 11:07 50.73831 20.31439 33718 ft 419 kts 185°
2026-05-06 11:07 50.70919 20.31265 33931 ft 419 kts 185°
2026-05-06 11:07 50.68047 20.31096 34118 ft 419 kts 185°
2026-05-06 11:07 50.65136 20.30924 34290 ft 419 kts 185°
2026-05-06 11:08 50.62220 20.30751 34502 ft 419 kts 185°
2026-05-06 11:08 50.59307 20.30577 34702 ft 419 kts 185°
2026-05-06 11:08 50.56403 20.30402 34938 ft 419 kts 185°
2026-05-06 11:09 50.50508 20.30071 34966 ft 429 kts 185°
2026-05-06 11:09 50.44463 20.29736 34827 ft 438 kts 185°
2026-05-06 11:10 50.38340 20.29395 34822 ft 442 kts 185°
2026-05-06 11:10 50.32193 20.29057 34836 ft 442 kts 185°
2026-05-06 11:11 50.26047 20.28717 34839 ft 442 kts 185°
2026-05-06 11:11 50.19895 20.28381 34840 ft 442 kts 185°
2026-05-06 11:12 50.13741 20.28041 34839 ft 443 kts 185°
2026-05-06 11:12 50.07581 20.27702 34838 ft 443 kts 185°
2026-05-06 11:13 50.01425 20.27363 34834 ft 443 kts 185°
2026-05-06 11:13 49.95265 20.27027 34838 ft 443 kts 185°
2026-05-06 11:14 49.89101 20.26689 34843 ft 443 kts 185°
2026-05-06 11:14 49.82933 20.26355 34838 ft 443 kts 185°
2026-05-06 11:15 49.76773 20.26020 34847 ft 444 kts 185°
2026-05-06 11:15 49.70603 20.25684 34856 ft 443 kts 185°
2026-05-06 11:16 49.64437 20.25351 34854 ft 443 kts 185°
2026-05-06 11:16 49.58274 20.25018 34858 ft 443 kts 185°
2026-05-06 11:17 49.52114 20.24687 34866 ft 443 kts 185°
2026-05-06 11:17 49.45948 20.24354 34875 ft 443 kts 185°
2026-05-06 11:18 49.39820 20.24026 34884 ft 443 kts 185°
2026-05-06 11:18 49.33656 20.23698 34897 ft 443 kts 185°
2026-05-06 11:19 49.27489 20.23371 34900 ft 443 kts 185°
2026-05-06 11:19 49.21331 20.23045 34909 ft 443 kts 185°
2026-05-06 11:20 49.15188 20.22719 34910 ft 442 kts 185°
2026-05-06 11:20 49.09041 20.22389 34912 ft 442 kts 185°
2026-05-06 11:21 49.02885 20.22065 34912 ft 442 kts 185°
2026-05-06 11:21 48.96729 20.21738 34922 ft 443 kts 185°
2026-05-06 11:22 48.90570 20.21420 34913 ft 443 kts 185°
2026-05-06 11:22 48.84414 20.21094 34921 ft 442 kts 185°
2026-05-06 11:23 48.78265 20.20770 34927 ft 442 kts 185°
2026-05-06 11:23 48.72118 20.20454 34926 ft 442 kts 185°
2026-05-06 11:24 48.65963 20.20132 34937 ft 443 kts 185°
2026-05-06 11:24 48.59805 20.19812 34936 ft 443 kts 185°
2026-05-06 11:25 48.53636 20.19493 34928 ft 443 kts 185°
2026-05-06 11:25 48.47473 20.19175 34931 ft 443 kts 185°
2026-05-06 11:26 48.41307 20.18857 34928 ft 443 kts 185°
2026-05-06 11:26 48.35138 20.18539 34925 ft 443 kts 185°
2026-05-06 11:27 48.29012 20.18224 34925 ft 444 kts 185°
2026-05-06 11:27 48.22845 20.17909 34934 ft 444 kts 185°
2026-05-06 11:28 48.16669 20.17594 34925 ft 444 kts 185°
2026-05-06 11:28 48.10504 20.17279 34925 ft 443 kts 185°
2026-05-06 11:29 48.04329 20.16966 34928 ft 444 kts 185°
2026-05-06 11:29 47.98157 20.16655 34924 ft 444 kts 185°
2026-05-06 11:30 47.91982 20.16342 34930 ft 444 kts 185°
2026-05-06 11:30 47.85811 20.16030 34931 ft 444 kts 185°
2026-05-06 11:31 47.79635 20.15718 34928 ft 444 kts 185°
2026-05-06 11:31 47.74503 20.15462 34931 ft 444 kts 185°
2026-05-06 11:32 47.68332 20.15151 34926 ft 444 kts 185°
2026-05-06 11:32 47.62159 20.14841 34925 ft 444 kts 185°
2026-05-06 11:33 47.55986 20.14535 34928 ft 444 kts 185°
2026-05-06 11:33 47.49814 20.14226 34926 ft 444 kts 185°
2026-05-06 11:34 47.43639 20.13920 34928 ft 444 kts 185°
2026-05-06 11:34 47.37466 20.13614 34931 ft 444 kts 185°
2026-05-06 11:35 47.31291 20.13309 34930 ft 444 kts 185°
2026-05-06 11:35 47.25153 20.13011 34928 ft 437 kts 186°
2026-05-06 11:36 47.19107 20.12708 34940 ft 438 kts 186°
2026-05-06 11:36 47.13004 20.12406 34940 ft 439 kts 186°
2026-05-06 11:37 47.06886 20.12109 34940 ft 440 kts 186°
2026-05-06 11:37 47.00768 20.11809 34938 ft 440 kts 186°
2026-05-06 11:38 46.94640 20.11510 34941 ft 441 kts 186°
2026-05-06 11:38 46.88514 20.11212 34940 ft 441 kts 186°
2026-05-06 11:39 46.82380 20.10914 34943 ft 441 kts 186°
2026-05-06 11:39 46.76243 20.10617 34946 ft 441 kts 186°
2026-05-06 11:40 46.70104 20.10320 34954 ft 442 kts 186°
2026-05-06 11:40 46.63961 20.10023 34959 ft 442 kts 186°
2026-05-06 11:41 46.57816 20.09727 34959 ft 442 kts 186°
2026-05-06 11:41 46.51669 20.09432 34959 ft 442 kts 186°
2026-05-06 11:42 46.45525 20.09138 34957 ft 442 kts 186°
2026-05-06 11:42 46.39368 20.08842 34961 ft 443 kts 186°
2026-05-06 11:43 46.33210 20.08549 34960 ft 443 kts 186°
2026-05-06 11:43 46.27046 20.08256 34965 ft 444 kts 186°
2026-05-06 11:44 46.17781 20.07872 34961 ft 447 kts 181°
2026-05-06 11:44 46.14698 20.08662 34980 ft 456 kts 167°
2026-05-06 11:44 46.11690 20.10185 34999 ft 459 kts 164°
2026-05-06 11:45 46.05700 20.13396 34964 ft 459 kts 164°
2026-05-06 11:45 45.99699 20.16569 34966 ft 460 kts 165°
2026-05-06 11:46 45.93725 20.19708 34965 ft 460 kts 165°
2026-05-06 11:46 45.87701 20.22864 34968 ft 461 kts 165°
2026-05-06 11:47 45.81672 20.26014 34966 ft 461 kts 164°
2026-05-06 11:47 45.75632 20.29161 34971 ft 462 kts 164°
2026-05-06 11:48 45.69592 20.32300 34969 ft 462 kts 165°
2026-05-06 11:48 45.63541 20.35440 34970 ft 463 kts 165°
2026-05-06 11:49 45.57480 20.38577 34969 ft 463 kts 165°
2026-05-06 11:49 45.51416 20.41708 34969 ft 464 kts 165°
2026-05-06 11:50 45.45347 20.44834 34970 ft 464 kts 165°
2026-05-06 11:50 45.39270 20.47958 34969 ft 465 kts 165°
2026-05-06 11:51 45.33184 20.51083 34976 ft 465 kts 165°
2026-05-06 11:51 45.27093 20.54194 34978 ft 465 kts 165°
2026-05-06 11:52 45.20996 20.57308 34976 ft 466 kts 165°
2026-05-06 11:52 45.14901 20.60410 34974 ft 466 kts 165°
2026-05-06 11:53 45.08792 20.63515 34966 ft 466 kts 165°
2026-05-06 11:53 45.02681 20.66614 34969 ft 466 kts 165°
2026-05-06 11:54 44.96570 20.69706 34970 ft 467 kts 165°
2026-05-06 11:54 44.90451 20.72792 34973 ft 467 kts 164°
2026-05-06 11:55 44.84328 20.75877 34975 ft 467 kts 165°
2026-05-06 11:55 44.78203 20.78955 34976 ft 467 kts 164°
2026-05-06 11:56 44.72114 20.82007 34977 ft 467 kts 164°
2026-05-06 11:56 44.65988 20.85071 34980 ft 468 kts 164°
2026-05-06 11:57 44.59855 20.88131 34978 ft 468 kts 164°
2026-05-06 11:57 44.53718 20.91187 34975 ft 468 kts 164°
2026-05-06 11:58 44.47583 20.94233 34972 ft 468 kts 164°
2026-05-06 11:58 44.41449 20.97273 34973 ft 468 kts 164°
2026-05-06 11:59 44.35312 21.00308 34973 ft 468 kts 164°
2026-05-06 11:59 44.29173 21.03337 34971 ft 468 kts 164°
2026-05-06 12:00 44.23031 21.06362 34969 ft 468 kts 164°
2026-05-06 12:00 44.16881 21.09385 34980 ft 469 kts 164°
2026-05-06 12:01 44.10727 21.12401 34983 ft 469 kts 164°
2026-05-06 12:01 44.04578 21.15408 34979 ft 469 kts 164°
2026-05-06 12:02 43.98464 21.18392 34980 ft 469 kts 164°
2026-05-06 12:02 43.92312 21.21389 34982 ft 469 kts 164°
2026-05-06 12:03 43.86147 21.24386 34987 ft 469 kts 164°
2026-05-06 12:03 43.79982 21.27375 34981 ft 468 kts 164°
2026-05-06 12:04 43.73828 21.30351 34983 ft 469 kts 164°
2026-05-06 12:04 43.67661 21.33329 34984 ft 469 kts 164°
2026-05-06 12:05 43.61489 21.36304 34983 ft 470 kts 164°
2026-05-06 12:05 43.55304 21.39277 34981 ft 471 kts 164°
2026-05-06 12:06 43.49120 21.42243 34989 ft 471 kts 164°
2026-05-06 12:06 43.42934 21.45205 34993 ft 470 kts 164°
2026-05-06 12:07 43.36743 21.48161 34985 ft 471 kts 164°
2026-05-06 12:07 43.30544 21.51116 34989 ft 472 kts 164°
2026-05-06 12:08 43.24341 21.54066 34997 ft 472 kts 164°
2026-05-06 12:08 43.18143 21.57014 34994 ft 471 kts 164°
2026-05-06 12:09 43.11987 21.59928 34999 ft 471 kts 164°
2026-05-06 12:09 43.05780 21.62862 35004 ft 472 kts 164°
2026-05-06 12:10 42.99561 21.65799 35002 ft 473 kts 164°
2026-05-06 12:10 42.93335 21.68712 35007 ft 473 kts 165°
2026-05-06 12:11 42.87079 21.71507 35001 ft 473 kts 165°
2026-05-06 12:11 42.80835 21.74314 35010 ft 473 kts 165°
2026-05-06 12:12 42.74598 21.77120 35014 ft 472 kts 165°
2026-05-06 12:12 42.68347 21.79933 35007 ft 474 kts 165°
2026-05-06 12:13 42.62084 21.82745 35016 ft 474 kts 165°
2026-05-06 12:13 42.55820 21.85555 35012 ft 473 kts 165°
2026-05-06 12:14 42.49562 21.88349 35021 ft 474 kts 165°
2026-05-06 12:14 42.43290 21.91147 35022 ft 474 kts 165°
2026-05-06 12:15 42.37015 21.93939 35018 ft 475 kts 165°
2026-05-06 12:15 42.30743 21.96725 35033 ft 475 kts 165°
2026-05-06 12:16 42.24457 21.99507 35030 ft 475 kts 165°
2026-05-06 12:16 42.18170 22.02291 35027 ft 476 kts 165°
2026-05-06 12:17 42.11882 22.05067 35026 ft 476 kts 165°
2026-05-06 12:17 42.05595 22.07837 35032 ft 476 kts 165°
2026-05-06 12:18 41.99324 22.10747 35023 ft 477 kts 163°
2026-05-06 12:18 41.93075 22.13767 35024 ft 477 kts 163°
2026-05-06 12:19 41.86813 22.16757 35028 ft 478 kts 163°
2026-05-06 12:19 41.80549 22.19733 35023 ft 477 kts 163°
2026-05-06 12:20 41.74292 22.22698 35034 ft 477 kts 163°
2026-05-06 12:20 41.69086 22.25159 35025 ft 477 kts 163°
2026-05-06 12:21 41.62824 22.28114 35026 ft 477 kts 163°
2026-05-06 12:21 41.56555 22.31068 35027 ft 478 kts 163°
2026-05-06 12:22 41.50289 22.34014 35024 ft 478 kts 163°
2026-05-06 12:22 41.44014 22.36958 35029 ft 478 kts 163°
2026-05-06 12:23 41.37738 22.39896 35020 ft 478 kts 163°
2026-05-06 12:23 41.31462 22.42827 35034 ft 478 kts 163°
2026-05-06 12:24 41.25180 22.45757 35025 ft 479 kts 163°
2026-05-06 12:24 41.18932 22.48663 35030 ft 479 kts 163°
2026-05-06 12:25 41.12646 22.51584 35030 ft 479 kts 163°
2026-05-06 12:25 41.06490 22.55057 35035 ft 482 kts 158°
2026-05-06 12:26 41.00379 22.58699 35030 ft 481 kts 159°
2026-05-06 12:26 40.94249 22.62262 35029 ft 482 kts 159°
2026-05-06 12:27 40.88107 22.65808 35026 ft 481 kts 159°
2026-05-06 12:27 40.81966 22.69344 35036 ft 482 kts 159°
2026-05-06 12:28 40.75820 22.72875 35036 ft 481 kts 159°
2026-05-06 12:28 40.69679 22.76398 35060 ft 482 kts 159°
2026-05-06 12:29 40.63529 22.79916 35066 ft 482 kts 159°
2026-05-06 12:29 40.57371 22.83435 35080 ft 482 kts 159°
2026-05-06 12:30 40.51215 22.86943 35075 ft 482 kts 159°
2026-05-06 12:30 40.45049 22.90450 35083 ft 483 kts 159°
2026-05-06 12:31 40.38881 22.93952 35056 ft 483 kts 159°
2026-05-06 12:31 40.32757 22.97422 35056 ft 483 kts 159°
2026-05-06 12:32 40.26589 23.00910 35061 ft 483 kts 159°
2026-05-06 12:32 40.20410 23.04397 35065 ft 484 kts 159°
2026-05-06 12:33 40.14231 23.07877 35069 ft 484 kts 159°
2026-05-06 12:33 40.08045 23.11354 35069 ft 484 kts 159°
2026-05-06 12:34 40.01814 23.14850 35066 ft 484 kts 159°
2026-05-06 12:34 39.95665 23.18292 35070 ft 484 kts 159°
2026-05-06 12:35 39.89468 23.21754 35071 ft 485 kts 159°
2026-05-06 12:35 39.83268 23.25212 35071 ft 485 kts 159°
2026-05-06 12:36 39.77021 23.28689 35068 ft 485 kts 159°
2026-05-06 12:36 39.70860 23.32111 35068 ft 485 kts 159°
2026-05-06 12:37 39.64653 23.35552 35068 ft 485 kts 159°
2026-05-06 12:37 39.58443 23.38988 35064 ft 485 kts 159°
2026-05-06 12:38 39.52233 23.42417 35070 ft 485 kts 159°
2026-05-06 12:38 39.46024 23.45839 35070 ft 485 kts 159°
2026-05-06 12:39 39.39811 23.49257 35059 ft 485 kts 159°
2026-05-06 12:39 39.33597 23.52667 35061 ft 485 kts 159°
2026-05-06 12:40 39.27384 23.56072 35061 ft 485 kts 159°
2026-05-06 12:40 39.21158 23.59477 35058 ft 486 kts 159°
2026-05-06 12:41 39.14723 23.61805 35074 ft 479 kts 176°
2026-05-06 12:41 39.08102 23.62759 35051 ft 478 kts 177°
2026-05-06 12:42 39.01494 23.63741 35063 ft 478 kts 176°
2026-05-06 12:42 38.94897 23.64747 35061 ft 477 kts 176°
2026-05-06 12:43 38.88296 23.65759 35058 ft 477 kts 176°
2026-05-06 12:43 38.81707 23.66768 35069 ft 477 kts 176°
2026-05-06 12:44 38.75113 23.67776 35065 ft 477 kts 176°
2026-05-06 12:44 38.68524 23.68780 35062 ft 477 kts 176°
2026-05-06 12:45 38.62004 23.69778 35062 ft 458 kts 177°
2026-05-06 12:45 38.55927 23.70709 35025 ft 423 kts 177°
2026-05-06 12:46 38.53051 23.71144 35002 ft 414 kts 177°
2026-05-06 12:46 38.50121 23.71580 33759 ft 436 kts 177°
2026-05-06 12:46 38.47044 23.72044 32257 ft 454 kts 177°
2026-05-06 12:46 38.43860 23.72514 31125 ft 464 kts 176°
2026-05-06 12:47 38.40686 23.72993 30610 ft 456 kts 176°
2026-05-06 12:47 38.37585 23.73462 30004 ft 452 kts 176°
2026-05-06 12:47 38.34484 23.73927 29419 ft 445 kts 176°
2026-05-06 12:47 38.31426 23.74392 28591 ft 443 kts 174°
2026-05-06 12:48 38.28371 23.75352 27161 ft 461 kts 163°
2026-05-06 12:48 38.25472 23.77220 25704 ft 472 kts 144°
2026-05-06 12:48 38.23170 23.80138 24189 ft 467 kts 123°
2026-05-06 12:48 38.21740 23.83785 22508 ft 458 kts 104°
2026-05-06 12:49 38.21006 23.87688 20765 ft 452 kts 102°
2026-05-06 12:49 38.19904 23.91432 19081 ft 453 kts 115°
2026-05-06 12:49 38.18460 23.94930 17685 ft 439 kts 117°
2026-05-06 12:49 38.17025 23.98316 16221 ft 429 kts 117°
2026-05-06 12:50 38.15631 24.01607 14918 ft 416 kts 117°
2026-05-06 12:50 38.14280 24.04798 13641 ft 404 kts 117°
2026-05-06 12:50 38.12967 24.07898 12256 ft 393 kts 117°
2026-05-06 12:50 38.11697 24.10914 10939 ft 382 kts 117°
2026-05-06 12:51 38.10471 24.13864 9652 ft 374 kts 117°
2026-05-06 12:51 38.09287 24.16745 8486 ft 361 kts 117°
2026-05-06 12:51 38.08151 24.19520 7530 ft 347 kts 117°
2026-05-06 12:51 38.07059 24.22195 6595 ft 336 kts 117°
2026-05-06 12:52 38.06003 24.24796 5632 ft 327 kts 117°
2026-05-06 12:52 38.04977 24.27333 4694 ft 320 kts 117°
2026-05-06 12:52 38.03996 24.29829 3744 ft 314 kts 117°
2026-05-06 12:52 38.03037 24.32218 3597 ft 281 kts 117°
2026-05-06 12:53 38.02234 24.34207 4624 ft 233 kts 117°
2026-05-06 12:53 38.01490 24.36035 5456 ft 244 kts 117°
2026-05-06 12:53 38.00541 24.37878 5105 ft 252 kts 131°
2026-05-06 12:53 37.99263 24.39380 4869 ft 249 kts 145°
2026-05-06 12:54 37.97754 24.40409 4640 ft 244 kts 160°
2026-05-06 12:54 37.96118 24.40888 4399 ft 240 kts 177°
2026-05-06 12:54 37.94472 24.40757 4161 ft 236 kts 194°
2026-05-06 12:54 37.93018 24.40014 4233 ft 219 kts 214°
2026-05-06 12:55 37.91817 24.38762 3855 ft 232 kts 231°
2026-05-06 12:55 37.91110 24.36895 3260 ft 244 kts 263°
2026-05-06 12:55 37.91398 24.34912 3410 ft 221 kts 300°
2026-05-06 12:55 37.92484 24.33572 3380 ft 222 kts 334°
2026-05-06 12:56 37.93932 24.32897 3405 ft 222 kts 340°
2026-05-06 12:56 37.95384 24.32225 3356 ft 223 kts 339°
2026-05-06 12:56 37.96835 24.31552 3355 ft 221 kts 339°
2026-05-06 12:56 37.98283 24.30879 3358 ft 222 kts 339°
2026-05-06 12:57 37.99732 24.30204 3368 ft 222 kts 339°
2026-05-06 12:57 38.01178 24.29511 3359 ft 222 kts 334°
2026-05-06 12:57 38.02485 24.28475 3456 ft 224 kts 324°
2026-05-06 12:57 38.03782 24.27343 3312 ft 224 kts 325°
2026-05-06 12:58 38.05055 24.26252 3332 ft 220 kts 325°
2026-05-06 12:58 38.06303 24.25177 3313 ft 212 kts 324°
2026-05-06 12:58 38.07247 24.23849 3255 ft 198 kts 290°
2026-05-06 12:58 38.07451 24.22194 3264 ft 185 kts 272°
2026-05-06 12:59 38.07559 24.20610 3464 ft 182 kts 275°
2026-05-06 12:59 38.07688 24.18919 3627 ft 200 kts 275°
2026-05-06 12:59 38.07823 24.17135 3716 ft 206 kts 275°
2026-05-06 12:59 38.07962 24.15307 3756 ft 210 kts 275°
2026-05-06 13:00 38.08107 24.13426 3451 ft 218 kts 275°
2026-05-06 13:00 38.08261 24.11521 3270 ft 208 kts 275°
2026-05-06 13:00 38.08383 24.09770 3254 ft 191 kts 266°
2026-05-06 13:00 38.08056 24.08194 3291 ft 181 kts 245°
2026-05-06 13:01 38.07483 24.06773 3398 ft 186 kts 238°
2026-05-06 13:01 38.06539 24.05587 3089 ft 196 kts 213°
2026-05-06 13:01 38.05414 24.04660 2877 ft 189 kts 216°
2026-05-06 13:01 38.04404 24.03622 2662 ft 185 kts 219°
2026-05-06 13:02 38.03397 24.02624 2427 ft 183 kts 215°
2026-05-06 13:02 38.02370 24.01665 2188 ft 183 kts 215°
2026-05-06 13:02 38.01348 24.00696 1953 ft 183 kts 217°
2026-05-06 13:02 38.00344 23.99718 1732 ft 179 kts 216°
2026-05-06 13:03 37.99353 23.98772 1467 ft 177 kts 216°
2026-05-06 13:03 37.98402 23.97861 1260 ft 166 kts 214°
2026-05-06 13:03 37.97496 23.96995 1032 ft 159 kts 214°
2026-05-06 13:03 37.96627 23.96167 822 ft 152 kts 215°
2026-05-06 13:04 37.95801 23.95359 579 ft 148 kts 217°
2026-05-06 13:04 37.94974 23.94580 385 ft 147 kts 217°
2026-05-06 13:04 37.94171 23.93821 303 ft 135 kts 218°
2026-05-06 13:04 37.93545 23.93219 291 ft 89 kts 217°
2026-05-06 13:05 37.93204 23.92900 288 ft 32 kts 209°
2026-05-06 13:05 37.93049 23.92838 291 ft 17 kts 189°
2026-05-06 13:05 37.92951 23.92828 297 ft 9 kts 155°
2026-05-06 13:05 37.92943 23.92922 300 ft 17 kts 51°
2026-05-06 13:06 37.93057 23.93034 299 ft 22 kts 37°
2026-05-06 13:06 37.93185 23.93155 300 ft 24 kts 36°
2026-05-06 13:06 37.93318 23.93282 300 ft 23 kts 37°
2026-05-06 13:06 37.93423 23.93385 298 ft 14 kts 53°
2026-05-06 13:07 37.93397 23.93495 301 ft 15 kts 127°
2026-05-06 13:07 37.93334 23.93602 301 ft 16 kts 127°
2026-05-06 13:07 37.93267 23.93715 302 ft 16 kts 127°
2026-05-06 13:07 37.93196 23.93833 300 ft 17 kts 127°
2026-05-06 13:08 37.93121 23.93956 302 ft 18 kts 128°
2026-05-06 13:08 37.93082 23.94020 300 ft 7 kts 127°
2026-05-06 13:08 37.93061 23.94057 302 ft 8 kts 127°
2026-05-06 13:08 37.93010 23.94143 300 ft 10 kts 128°
2026-05-06 13:09 37.92981 23.94214 300 ft 7 kts 73°
2026-05-06 13:09 37.93017 23.94250 300 ft 7 kts 37°
2026-05-06 13:09 37.93049 23.94281 301 ft 3 kts 37°
2026-05-06 13:09 37.93052 23.94284 300 ft 0 kts 37°
2026-05-06 13:10 37.93052 23.94283 300 ft 0 kts 37°
2026-05-06 13:11 37.93052 23.94284 300 ft 0 kts 37°
2026-05-06 13:11 37.93052 23.94283 300 ft 0 kts 37°